Arlington, TX

1:37 AM CDT on May 23, 2017 (GMT -0500)
Arlington Municipal

Weather History for KGKY - April, 2014

Change the Weather History Date:

Sunday, April 27, 2014

  Actual Average (KRBD) Record (KRBD)
Temperature  
Mean Temperature 82 °F -  
Max Temperature 91 °F 76 °F 91 °F (2014)
Min Temperature 73 °F 57 °F 46 °F (2017)
Cooling Degree Days 17    
Growing Degree Days 32 (Base 50)    
Moisture  
Dew Point 58 °F    
Average Humidity 57    
Maximum Humidity 88    
Minimum Humidity 16    
Precipitation  
Precipitation 0.02 in - - ()
Sea Level Pressure  
Sea Level Pressure 29.49 in    
Wind  
Wind Speed 14 mph (South)    
Max Wind Speed 22 mph    
Max Gust Speed 31 mph    
Visibility 9 miles    
Events Rain , Thunderstorm    
Averages and records for this station are not official NWS values.
T = Trace of Precipitation, MM = Missing Value Source: NWS Daily Summary

Daily Weather History Graph

Daily Weather History Graph

Search for Another Location

Airport or City:

Trip Planner

Search our weather history database for the weather conditions in past years. The results will help you decide how hot, cold, wet, or windy it might be!

Date:

Astronomy

Apr. 27, 2014 Rise Set
Actual Time 6:45 AM CDT 8:07 PM CDT
Civil Twilight 6:19 AM CDT 8:33 PM CDT
Nautical Twilight 5:48 AM CDT 9:04 PM CDT
Astronomical Twilight 5:16 AM CDT 9:36 PM CDT
Moon 5:40 AM CDT (4/27) 6:46 PM CDT (4/27)
Length of Visible Light 14h 13m
Length of Day
13h 21m
Waning Crescent, 3% of the Moon is Illuminated
Apr 27
Waning Crescent
Apr 29
New
May 6
First Quarter
May 14
Full
May 21
Last Quarter

Hourly Weather History & Observations

Time (CDT) Temp. Heat Index Dew Point Humidity Pressure Visibility Wind Dir Wind Speed Gust Speed Precip Events Conditions
12:53 AM 73.9 °F - 66.9 °F 79% 29.61 in 9.0 mi SSE 13.8 mph 25.3 mph N/A   Overcast
1:53 AM 73.0 °F - 66.9 °F 81% 29.58 in 10.0 mi SSE 19.6 mph 29.9 mph N/A   Overcast
2:53 AM 73.0 °F - 66.9 °F 81% 29.55 in 10.0 mi SSE 20.7 mph 31.1 mph N/A   Overcast
3:53 AM 73.0 °F - 66.9 °F 81% 29.54 in 10.0 mi SSE 21.9 mph 28.8 mph N/A   Overcast
4:53 AM 73.9 °F - 66.0 °F 76% 29.51 in 10.0 mi SSE 17.3 mph 28.8 mph N/A   Overcast
5:53 AM 73.9 °F - 66.9 °F 79% 29.51 in 10.0 mi SSE 20.7 mph 29.9 mph N/A   Overcast
6:53 AM 73.9 °F - 66.9 °F 79% 29.49 in 10.0 mi SSE 21.9 mph 31.1 mph N/A   Overcast
7:53 AM 75.0 °F - 66.9 °F 76% 29.49 in 8.0 mi SSE 19.6 mph 25.3 mph N/A   Overcast
8:35 AM 75.2 °F - 68.0 °F 78% 29.56 in 8.0 mi SSW 10.4 mph 20.7 mph N/A Thunderstorm Overcast
8:53 AM 73.0 °F - 69.1 °F 87% 29.52 in 5.0 mi South 9.2 mph 17.3 mph 0.02 in Rain , Thunderstorm Light Rain
9:11 AM 73.4 °F - 69.8 °F 88% 29.54 in 6.0 mi South 12.7 mph 18.4 mph 0.00 in Thunderstorm Haze
9:21 AM 75.2 °F - 69.8 °F 83% 29.53 in 6.0 mi South 11.5 mph 19.6 mph 0.00 in   Haze
9:53 AM 77.0 °F - 70.0 °F 79% 29.51 in 7.0 mi SSE 17.3 mph 25.3 mph 0.00 in   Scattered Clouds
10:06 AM 78.8 °F - 69.8 °F 74% 29.54 in 7.0 mi South 15.0 mph 25.3 mph N/A   Mostly Cloudy
10:19 AM 78.8 °F - 69.8 °F 74% 29.53 in 8.0 mi South 11.5 mph 28.8 mph N/A   Mostly Cloudy
10:53 AM 81.0 °F 84.1 °F 69.1 °F 67% 29.51 in 9.0 mi South 15.0 mph 28.8 mph N/A   Partly Cloudy
11:53 AM 82.9 °F 86.5 °F 69.1 °F 63% 29.51 in 9.0 mi South 9.2 mph - N/A   Partly Cloudy
12:53 PM 87.1 °F 89.9 °F 66.9 °F 51% 29.48 in 10.0 mi South 11.5 mph 17.3 mph N/A   Partly Cloudy
1:53 PM 88.0 °F 86.7 °F 57.0 °F 35% 29.46 in 10.0 mi WSW 8.1 mph 17.3 mph N/A   Partly Cloudy
3:53 PM 89.1 °F - 37.9 °F 16% 29.41 in 10.0 mi SW 10.4 mph 19.6 mph N/A   Clear
4:53 PM 90.0 °F - 39.9 °F 17% 29.39 in 10.0 mi SSW 11.5 mph 17.3 mph N/A   Clear
5:53 PM 91.0 °F - 39.9 °F 17% 29.37 in 10.0 mi South 8.1 mph 17.3 mph N/A   Clear
6:53 PM 89.1 °F - 44.1 °F 21% 29.37 in 10.0 mi South 10.4 mph - N/A   Clear
7:53 PM 86.0 °F - 44.1 °F 23% 29.40 in 10.0 mi South 9.2 mph - N/A   Clear
8:53 PM 81.0 °F - 45.0 °F 28% 29.44 in 10.0 mi SSW 3.5 mph - N/A   Clear
9:53 PM 77.0 °F - 39.9 °F 26% 29.46 in 10.0 mi WSW 3.5 mph - N/A   Clear
10:53 PM 81.0 °F - 32.0 °F 17% 29.48 in 10.0 mi SW 5.8 mph - N/A   Mostly Cloudy
11:53 PM 79.0 °F - 32.0 °F 18% 29.48 in 10.0 mi SSW 5.8 mph - N/A   Scattered Clouds